Regional Weather Roundup
Issued by NWS Newport/Morehead, NC

Current Version | Previous Version | Text Only | Print | Product List | Glossary On
Versions: 1 2 3 4 5 6 7 8 9 10 11 12 13 14 15 16 17 18 19 20 21 22 23 24 25 26 27 28 29 30 31 32 33 34 35 36 37 38 39 40 41 42 43 44 45 46 47 48 49 50
000 ASUS42 KMHX 061114 RWRMHX WEATHER ROUNDUP FOR EASTERN NORTH CAROLINA NATIONAL WEATHER SERVICE NEWPORT/MOREHEAD CITY NC 600 AM EST SAT FEB 06 2016 NOTE: "FAIR" INDICATES FEW OR NO CLOUDS BELOW 12,000 FEET WITH NO SIGNIFICANT WEATHER AND/OR OBSTRUCTIONS TO VISIBILITY NCZ015>017-031-032-045>047-102-103-061200- NORTH COAST CITY SKY/WX TMP DP RH WIND PRES REMARKS EDENTON CLOUDY 30 28 92 CALM 30.45R ELIZABETH CITY CLOUDY 32 26 78 NW7 30.44R KITTY HAWK PTSUNNY 38 27 64 CALM 30.41R MANTEO MOCLDY 36 29 75 CALM 30.43R $$ NCZ045>047-081-094-103-104-061200- CENTRAL COAST CITY SKY/WX TMP DP RH WIND PRES REMARKS FRISCO CLEAR 41 28 60 VRB6 30.40R SWANQUARTER N/A 28 N/A N/A CALM 30.41R $$ NCZ095-097-098-100-101-061200- SOUTHERN COAST CITY SKY/WX TMP DP RH WIND PRES REMARKS BEAUFORT CLEAR 35 29 78 N9 30.42R CEDAR ISLAND N/A 41 N/A N/A VRB9 30.47S JACKSONVILLE PTCLDY 30 27 88 NW5 30.43R PINEY ISLAND SUNNY N/A N/A N/A N6 30.43R WILMINGTON PTCLDY 33 29 85 NE5 30.41R $$ NCZ011>013-027>030-043-044-078>080-089-090>093-098-061200- COASTAL PLAIN CITY SKY/WX TMP DP RH WIND PRES REMARKS AHOSKIE CLOUDY 26 24 92 CALM 30.45R CLINTON CLOUDY 30 30 99 NE3 30.46R ELIZABETHTOWN PTCLDY 30 29 96 CALM 30.44R GOLDSBORO CLOUDY 32 32 100 CALM 30.44R GREENVILLE CLOUDY 28 28 100 CALM 30.45R HAVELOCK CLEAR 31 28 89 CALM 30.44R KENANSVILLE N/A 27 27 100 CALM 30.46R KINSTON NOT AVBL NEW BERN CLOUDY 32 29 88 CALM 30.45R RICHLANDS CLOUDY 27 21 80 CALM 30.44R ROCKY MOUNT CLOUDY 29 27 92 CALM 30.46R WASHINGTON PTCLDY 28 25 89 CALM 30.45R WHITEVILLE CLEAR 32 30 94 NW5 30.42S $$ AMZ130-135-150-152-154-156-158-170-250-252-270-ANZ085-086-088-633-658-670-061200- MARINE OBSERVATIONS STATION/POSITION TIME TEMP WIND PRES WAVE SWELL AIR SEA DIR/SP/G HT/PER HT/PER (UTC) (F) (DEG/KT/KT) (MB) (FT/S) (FT/S) CHESAPEAKE LIGHT 1100 39 30/ 9/ 10 1031.0 64 E VA BEACH 1050 43 54 360/ 10/ 16 1029.0 6/ 8 7/ 8 DUCK 1000 41 45 20/ 9/ 10 1029.0 2 E DUCK 1011 44 N/A 4/10 2/11 OREGON INLET 1000 41 46 40/ 5/ 7 1029.4 13E OREGON INLT 1100 46 N/A 6/10 3/11 HATTERAS CG 1000 53 350/ 13/ 15 1028.4 DIAMOND BUOY 1050 46 73 360/ 17/ 21 1028.6 7/11 7/11 CAPE LOOKOUT NOT AVBL BEAUFORT LAB 1000 51 10/ 5/ 6 1028.8 30 SE NEW RVR IN 1008 47 65 1027.1 30 SE NEW RVR IN 1025 65 N/A 4/12 2/12 27 SE WRIGHTSVLE 1008 48 69 40/ 12/ 19 1027.0 5 SE WRIGHTSVLE 1008 45 54 30/ 16/ 21 1028.7 225 S CAPE HAT 1050 60 69 80/ 14/ 17 N/A 9/11 8/11 41 SE CHARLESTON 1050 52 67 10/ 23/ 27 1026.0 6/10 5/10 $$

USA.gov is the U.S. government's official web portal to all federal, state and local government web resources and services.